TimeCST,TemperatureF,Dew PointF,Humidity,Sea Level PressureIn,VisibilityMPH,Wind Direction,Wind SpeedMPH,Gust SpeedMPH,PrecipitationIn,Events,Conditions,WindDirDegrees,DateUTC
12:55 AM,42.4,37.9,84,30.10,10.0,SSE,3.5,-,N/A,,Clear,160,2012-11-09 06:55:00
1:55 AM,39.0,37.4,94,30.09,10.0,SSE,6.9,-,N/A,,Clear,150,2012-11-09 07:55:00
3:55 AM,38.7,36.9,93,30.08,10.0,SSE,5.8,-,N/A,,Clear,150,2012-11-09 09:55:00
4:55 AM,40.5,37.6,89,30.09,10.0,SSE,5.8,-,N/A,,Clear,150,2012-11-09 10:55:00
5:55 AM,41.5,39.0,91,30.09,10.0,SSE,5.8,-,N/A,,Mostly Cloudy,150,2012-11-09 11:55:00
6:55 AM,43.5,40.1,88,30.09,10.0,SSE,5.8,-,N/A,,Scattered Clouds,160,2012-11-09 12:55:00
7:55 AM,47.1,41.5,81,30.09,10.0,SSE,4.6,-,N/A,,Mostly Cloudy,150,2012-11-09 13:55:00
8:55 AM,52.2,43.2,71,30.08,10.0,South,6.9,-,N/A,,Overcast,170,2012-11-09 14:55:00
9:55 AM,57.4,44.4,62,30.06,10.0,South,11.5,-,N/A,,Mostly Cloudy,180,2012-11-09 15:55:00
10:55 AM,62.6,46.8,56,30.05,10.0,South,12.7,-,N/A,,Clear,170,2012-11-09 16:55:00
11:55 AM,66.0,49.3,55,30.01,10.0,South,15.0,-,N/A,,Clear,190,2012-11-09 17:55:00
12:55 PM,68.5,51.6,55,29.98,10.0,SSW,17.3,-,N/A,,Clear,200,2012-11-09 18:55:00
1:55 PM,66.9,51.4,57,29.97,10.0,South,15.0,-,N/A,,Mostly Cloudy,190,2012-11-09 19:55:00
2:55 PM,68.0,52.2,57,29.96,10.0,South,13.8,-,N/A,,Scattered Clouds,180,2012-11-09 20:55:00
3:55 PM,68.2,52.7,58,29.94,10.0,South,17.3,-,N/A,,Clear,180,2012-11-09 21:55:00
4:55 PM,66.0,53.8,65,29.94,10.0,South,12.7,-,N/A,,Clear,180,2012-11-09 22:55:00
5:55 PM,64.8,54.3,69,29.95,10.0,South,12.7,-,N/A,,Clear,180,2012-11-09 23:55:00
6:55 PM,63.3,54.9,74,29.96,10.0,South,12.7,-,N/A,,Clear,180,2012-11-10 00:55:00
7:55 PM,62.2,55.2,78,29.97,10.0,South,12.7,-,N/A,,Clear,190,2012-11-10 01:55:00
8:55 PM,60.8,54.9,81,29.98,10.0,South,10.4,-,N/A,,Clear,190,2012-11-10 02:55:00
9:55 PM,60.4,53.6,78,29.99,10.0,SSW,12.7,-,N/A,,Clear,200,2012-11-10 03:55:00
10:55 PM,60.3,51.6,73,29.99,10.0,South,12.7,-,N/A,,Scattered Clouds,190,2012-11-10 04:55:00
11:55 PM,59.4,49.6,70,30.01,10.0,SSW,9.2,-,N/A,,Scattered Clouds,210,2012-11-10 05:55:00